When you browse on this site, cookies collect data to enhance your experience and personalize the content and advertising you see.
Visit our Privacy Policy to learn more. By continuing to use the site, you agree to this use of cookies and data.
  • In Lithuania
  • List of Countries
  • For 7 days
  • Water Temperature
  • Weather Map
  • Weather Widgets
  • user-avatar
    Login

    Hourly Weather Perth

    Today, 13 December, Friday

    Time Temperature Precipitation Wind Pressure Humidity
    00:00 +30°C° 0 mm 4 mps 760 mmHg 20%
    01:00 +29°C° 0 mm 5 mps 760 mmHg 21%
    02:00 +28°C° 0 mm 6 mps 760 mmHg 22%
    03:00 +28°C° 0 mm 5 mps 760 mmHg 23%
    04:00 +27°C° 0 mm 5 mps 760 mmHg 24%
    05:00 +26°C° 0 mm 5 mps 760 mmHg 24%
    06:00 +28°C° 0 mm 5 mps 761 mmHg 22%
    07:00 +30°C° 0 mm 5 mps 761 mmHg 20%
    08:00 +33°C° 0 mm 5 mps 761 mmHg 18%
    09:00 +35°C° 0 mm 4 mps 761 mmHg 17%
    10:00 +37°C° 0 mm 3 mps 761 mmHg 15%
    11:00 +39°C° 0 mm 2 mps 760 mmHg 14%
    12:00 +40°C° 0 mm 3 mps 760 mmHg 14%
    13:00 +42°C° 0 mm 3 mps 759 mmHg 13%
    14:00 +42°C° 0 mm 3 mps 758 mmHg 12%
    15:00 +41°C° 0 mm 4 mps 758 mmHg 14%
    16:00 +40°C° 0 mm 5 mps 758 mmHg 16%
    17:00 +39°C° 0 mm 6 mps 757 mmHg 18%
    18:00 +36°C° 0 mm 5 mps 758 mmHg 19%
    19:00 +34°C° 0 mm 5 mps 758 mmHg 21%
    20:00 +32°C° 0 mm 5 mps 758 mmHg 23%
    21:00 +32°C° 0 mm 5 mps 758 mmHg 24%
    22:00 +30°C° 0 mm 5 mps 759 mmHg 25%
    23:00 +30°C° 0 mm 4 mps 759 mmHg 26%

    Tomorrow, 14 December, Saturday

    Time Temperature Precipitation Wind Pressure Humidity
    00:00 +29°C° 0 mm 4 mps 758 mmHg 28%
    01:00 +28°C° 0 mm 4 mps 758 mmHg 29%
    02:00 +27°C° 0 mm 3 mps 757 mmHg 31%
    03:00 +27°C° 0 mm 3 mps 757 mmHg 31%
    04:00 +26°C° 0 mm 3 mps 757 mmHg 31%
    05:00 +26°C° 0 mm 3 mps 757 mmHg 31%
    06:00 +28°C° 0 mm 3 mps 757 mmHg 27%
    07:00 +31°C° 0 mm 3 mps 757 mmHg 23%
    08:00 +34°C° 0 mm 2 mps 757 mmHg 19%
    09:00 +36°C° 0 mm 2 mps 757 mmHg 17%
    10:00 +39°C° 0 mm 2 mps 757 mmHg 15%
    11:00 +41°C° 0 mm 2 mps 756 mmHg 13%
    12:00 +42°C° 0 mm 2 mps 755 mmHg 13%
    13:00 +43°C° 0 mm 3 mps 754 mmHg 12%
    14:00 +43°C° 0 mm 3 mps 753 mmHg 12%
    15:00 +42°C° 0 mm 4 mps 753 mmHg 14%
    16:00 +41°C° 0 mm 6 mps 753 mmHg 16%
    17:00 +39°C° 0 mm 7 mps 753 mmHg 19%
    18:00 +36°C° 0 mm 6 mps 753 mmHg 20%
    19:00 +35°C° 0 mm 5 mps 753 mmHg 21%
    20:00 +33°C° 0 mm 4 mps 753 mmHg 22%
    21:00 +32°C° 0 mm 4 mps 753 mmHg 22%
    22:00 +30°C° 0 mm 3 mps 754 mmHg 22%
    23:00 +29°C° 0 mm 3 mps 754 mmHg 22%

    Day after tomorrow, 15 December, Sunday

    Time Temperature Precipitation Wind Pressure Humidity
    00:00 +29°C° 0 mm 3 mps 753 mmHg 24%
    01:00 +29°C° 0 mm 3 mps 753 mmHg 26%
    02:00 +28°C° 0 mm 2 mps 752 mmHg 27%
    03:00 +28°C° 0 mm 2 mps 752 mmHg 29%
    04:00 +27°C° 0 mm 2 mps 752 mmHg 30%
    05:00 +27°C° 0 mm 2 mps 752 mmHg 31%
    06:00 +29°C° 0 mm 2 mps 752 mmHg 30%
    07:00 +32°C° 0 mm 2 mps 752 mmHg 28%
    08:00 +36°C° 0 mm 2 mps 751 mmHg 26%
    09:00 +37°C° 0 mm 2 mps 751 mmHg 24%
    10:00 +39°C° 0 mm 3 mps 751 mmHg 22%
    11:00 +41°C° 0 mm 4 mps 751 mmHg 19%
    12:00 +41°C° 0 mm 5 mps 750 mmHg 21%
    13:00 +40°C° 0 mm 5 mps 750 mmHg 22%
    14:00 +39°C° 0 mm 6 mps 749 mmHg 23%
    15:00 +38°C° 0 mm 6 mps 749 mmHg 25%
    16:00 +35°C° 0 mm 6 mps 749 mmHg 28%
    17:00 +34°C° 0 mm 6 mps 750 mmHg 30%
    18:00 +32°C° 0 mm 5 mps 750 mmHg 35%
    19:00 +29°C° 0 mm 4 mps 750 mmHg 39%
    20:00 +27°C° 0 mm 4 mps 751 mmHg 44%
    21:00 +27°C° 0 mm 3 mps 751 mmHg 44%
    22:00 +27°C° 0 mm 3 mps 751 mmHg 45%
    23:00 +27°C° 0 mm 2 mps 752 mmHg 45%

    16 December, Monday

    Time Temperature Precipitation Wind Pressure Humidity
    00:00 +27°C° 0 mm 2 mps 751 mmHg 43%
    01:00 +27°C° 0 mm 2 mps 751 mmHg 42%
    02:00 +27°C° 0 mm 2 mps 751 mmHg 40%
    03:00 +26°C° 0 mm 2 mps 751 mmHg 42%
    04:00 +25°C° 0 mm 1 mps 751 mmHg 43%
    05:00 +24°C° 0 mm 1 mps 752 mmHg 45%
    06:00 +26°C° 0 mm 1 mps 752 mmHg 42%
    07:00 +28°C° 0 mm 1 mps 753 mmHg 39%
    08:00 +29°C° 0 mm 1 mps 753 mmHg 35%
    09:00 +31°C° 0 mm 2 mps 753 mmHg 33%
    10:00 +33°C° 0 mm 3 mps 753 mmHg 31%
    11:00 +34°C° 0 mm 3 mps 753 mmHg 28%
    12:00 +34°C° 0 mm 4 mps 753 mmHg 31%
    13:00 +33°C° 0 mm 5 mps 752 mmHg 34%
    14:00 +33°C° 0 mm 6 mps 752 mmHg 37%
    15:00 +32°C° 0 mm 6 mps 752 mmHg 40%
    16:00 +30°C° 0 mm 6 mps 752 mmHg 43%
    17:00 +29°C° 0 mm 6 mps 753 mmHg 46%
    18:00 +28°C° 0 mm 5 mps 753 mmHg 50%
    19:00 +26°C° 0 mm 5 mps 754 mmHg 55%
    20:00 +25°C° 0 mm 5 mps 755 mmHg 60%
    21:00 +23°C° 0 mm 4 mps 755 mmHg 64%
    22:00 +22°C° 0 mm 4 mps 756 mmHg 68%
    23:00 +22°C° 0 mm 4 mps 757 mmHg 72%

    17 December, Tuesday

    Time Temperature Precipitation Wind Pressure Humidity
    00:00 +21°C° 0 mm 3 mps 756 mmHg 72%
    01:00 +21°C° 0 mm 3 mps 756 mmHg 72%
    02:00 +21°C° 0 mm 2 mps 756 mmHg 72%
    03:00 +21°C° 0 mm 2 mps 756 mmHg 70%
    04:00 +20°C° 0 mm 2 mps 757 mmHg 69%
    05:00 +21°C° 0 mm 1 mps 757 mmHg 67%
    06:00 +23°C° 0 mm 1 mps 757 mmHg 59%
    07:00 +25°C° 0 mm 1 mps 757 mmHg 50%
    08:00 +27°C° 0 mm 1 mps 758 mmHg 42%
    09:00 +29°C° 0 mm 2 mps 757 mmHg 41%
    10:00 +30°C° 0 mm 3 mps 757 mmHg 39%
    11:00 +32°C° 0 mm 4 mps 757 mmHg 38%
    12:00 +32°C° 0 mm 5 mps 757 mmHg 38%
    13:00 +32°C° 0 mm 5 mps 757 mmHg 38%
    14:00 +33°C° 0 mm 6 mps 756 mmHg 38%
    15:00 +32°C° 0 mm 6 mps 756 mmHg 40%
    16:00 +30°C° 0 mm 6 mps 756 mmHg 43%
    17:00 +29°C° 0 mm 6 mps 756 mmHg 45%
    18:00 +27°C° 0 mm 6 mps 757 mmHg 50%
    19:00 +25°C° 0 mm 5 mps 757 mmHg 55%
    20:00 +22°C° 0 mm 5 mps 758 mmHg 61%
    21:00 +22°C° 0 mm 4 mps 759 mmHg 62%
    22:00 +22°C° 0 mm 3 mps 759 mmHg 63%
    23:00 +21°C° 0 mm 3 mps 759 mmHg 64%

    18 December, Wednesday

    Time Temperature Precipitation Wind Pressure Humidity
    00:00 +22°C° 0 mm 3 mps 759 mmHg 62%
    01:00 +22°C° 0 mm 3 mps 759 mmHg 60%
    02:00 +22°C° 0 mm 3 mps 759 mmHg 57%
    03:00 +21°C° 0 mm 3 mps 759 mmHg 56%
    04:00 +21°C° 0 mm 3 mps 758 mmHg 55%
    05:00 +21°C° 0 mm 3 mps 758 mmHg 54%
    06:00 +24°C° 0 mm 3 mps 758 mmHg 49%
    07:00 +25°C° 0 mm 3 mps 758 mmHg 43%
    08:00 +27°C° 0 mm 4 mps 758 mmHg 38%
    09:00 +30°C° 0 mm 3 mps 758 mmHg 34%
    10:00 +33°C° 0 mm 3 mps 757 mmHg 31%
    11:00 +36°C° 0 mm 3 mps 756 mmHg 27%
    12:00 +36°C° 0 mm 4 mps 756 mmHg 27%
    13:00 +37°C° 0 mm 4 mps 755 mmHg 28%
    14:00 +37°C° 0 mm 5 mps 754 mmHg 28%
    15:00 +36°C° 0 mm 5 mps 754 mmHg 31%
    16:00 +34°C° 0 mm 5 mps 753 mmHg 34%
    17:00 +32°C° 0 mm 5 mps 753 mmHg 38%
    18:00 +29°C° 0 mm 5 mps 753 mmHg 45%
    19:00 +27°C° 0 mm 4 mps 753 mmHg 51%
    20:00 +25°C° 0 mm 4 mps 754 mmHg 58%
    21:00 +24°C° 0 mm 3 mps 754 mmHg 64%
    22:00 +24°C° 0 mm 3 mps 754 mmHg 69%
    23:00 +22°C° 0 mm 3 mps 755 mmHg 74%
    Show more